| time (UTC) | temp F | wind direction | speed MPH | gust MPH | rain 1hr in | rain 24hr in | rain mn in | humidity % | barometer mb |
| 20260504045935 | 60 | 315 | 0.0 | 0.0 | 0.00 | 0.00 | 0.00 | 68 | 1020.4 |
| 20260504044846 | 61 | 315 | 0.0 | 0.0 | 0.00 | 0.00 | 0.00 | 67 | 1020.4 |
| 20260504043806 | 60 | 315 | 0.0 | 0.0 | 0.00 | 0.00 | 0.00 | 67 | 1020.6 |
| 20260504042718 | 61 | 315 | 0.0 | 0.0 | 0.00 | 0.00 | 0.00 | 65 | 1020.6 |
| 20260504042109 | 62 | 315 | 0.0 | 0.0 | 0.00 | 0.00 | 0.00 | 66 | 1020.7 |
| 20260504040546 | 61 | 315 | 0.0 | 0.0 | 0.00 | 0.00 | 0.00 | 65 | 1020.7 |
| 20260504035500 | 62 | 315 | 0.0 | 0.0 | 0.00 | 0.00 | 0.00 | 65 | 1020.6 |
| 20260504034415 | 62 | 315 | 0.0 | 0.0 | 0.00 | 0.00 | 0.00 | 64 | 1020.6 |
| 20260504033333 | 62 | 315 | 0.0 | 0.0 | 0.00 | 0.00 | 0.00 | 63 | 1020.8 |
| 20260504032244 | 63 | 225 | 0.0 | 0.0 | 0.00 | 0.00 | 0.00 | 62 | 1020.8 |
| 20260504031158 | 63 | 225 | 0.0 | 0.0 | 0.00 | 0.00 | 0.00 | 62 | 1020.9 |
| 20260504030119 | 62 | 225 | 0.0 | 0.0 | 0.00 | 0.00 | 0.00 | 61 | 1020.9 |
| 20260504025033 | 63 | 225 | 0.0 | 0.0 | 0.00 | 0.00 | 0.00 | 60 | 1020.9 |
| 20260504023941 | 64 | 135 | 0.0 | 0.0 | 0.00 | 0.00 | 0.00 | 60 | 1020.6 |
| 20260504022900 | 64 | 293 | 0.0 | 0.0 | 0.00 | 0.00 | 0.00 | 60 | 1020.6 |
| 20260504021810 | 65 | 135 | 0.0 | 0.0 | 0.00 | 0.00 | 0.00 | 58 | 1020.2 |
| 20260504020724 | 65 | 113 | 0.0 | 0.0 | 0.00 | 0.00 | 0.00 | 58 | 1020.2 |
| 20260504015639 | 65 | 158 | 1.0 | 2.0 | 0.00 | 0.00 | 0.00 | 58 | 1020.2 |
| 20260504014553 | 65 | 225 | 1.0 | 2.0 | 0.00 | 0.00 | 0.00 | 56 | 1020.2 |
| 20260504013508 | 66 | 135 | 0.0 | 0.0 | 0.00 | 0.00 | 0.00 | 55 | 1019.9 |
| 20260504012426 | 67 | 135 | 0.0 | 1.0 | 0.00 | 0.00 | 0.00 | 52 | 1019.9 |
| 20260504011821 | 69 | 293 | 0.0 | 1.0 | 0.00 | 0.00 | 0.00 | 49 | 1020.4 |
| 20260504010250 | 69 | 180 | 1.0 | 2.0 | 0.00 | 0.00 | 0.00 | 48 | 1020.4 |
| 20260504005205 | 69 | 135 | 2.0 | 4.0 | 0.00 | 0.00 | 0.00 | 47 | 1019.7 |
| 20260504004121 | 70 | 180 | 2.0 | 4.0 | 0.00 | 0.00 | 0.00 | 46 | 1019.4 |
| 20260504003032 | 70 | 135 | 3.0 | 4.0 | 0.00 | 0.00 | 0.00 | 45 | 1019.4 |
| 20260504002431 | 71 | 180 | 3.0 | 5.0 | 0.00 | 0.00 | 0.00 | 44 | 1019.6 |
| 20260504000904 | 71 | 180 | 3.0 | 5.0 | 0.00 | 0.00 | 0.00 | 43 | 1019.6 |
| 20260503235821 | 72 | 158 | 4.0 | 7.0 | 0.00 | 0.00 | 0.00 | 42 | 1019.5 |
| 20260503234734 | 72 | 180 | 4.0 | 6.0 | 0.00 | 0.00 | 0.00 | 41 | 1019.5 |
| 20260503233646 | 73 | 180 | 4.0 | 7.0 | 0.00 | 0.00 | 0.00 | 41 | 1019.6 |
| 20260503232601 | 73 | 180 | 3.0 | 4.0 | 0.00 | 0.00 | 0.00 | 39 | 1019.6 |
| 20260503231522 | 73 | 135 | 3.0 | 5.0 | 0.00 | 0.00 | 0.00 | 39 | 1019.8 |
| 20260503230432 | 73 | 113 | 4.0 | 6.0 | 0.00 | 0.00 | 0.00 | 38 | 1019.8 |
| 20260503225345 | 73 | 113 | 4.0 | 7.0 | 0.00 | 0.00 | 0.00 | 38 | 1019.7 |
| 20260503224739 | 73 | 135 | 5.0 | 11.0 | 0.00 | 0.00 | 0.00 | 36 | 1019.7 |
| 20260503223216 | 74 | 158 | 4.0 | 9.0 | 0.00 | 0.00 | 0.00 | 36 | 1019.8 |
| 20260503222129 | 74 | 45 | 2.0 | 3.0 | 0.00 | 0.00 | 0.00 | 34 | 1020.1 |
| 20260503221522 | 74 | 293 | 5.0 | 8.0 | 0.00 | 0.00 | 0.00 | 33 | 1020.1 |
| 20260503215955 | 74 | 23 | 3.0 | 7.0 | 0.00 | 0.00 | 0.00 | 34 | 1020.0 |
| 20260503214911 | 74 | 90 | 3.0 | 9.0 | 0.00 | 0.00 | 0.00 | 35 | 1020.0 |
| 20260503213825 | 74 | 270 | 4.0 | 6.0 | 0.00 | 0.00 | 0.00 | 35 | 1020.2 |
| 20260503212738 | 74 | 315 | 4.0 | 9.0 | 0.00 | 0.00 | 0.00 | 35 | 1020.2 |
| 20260503212128 | 74 | 248 | 4.0 | 5.0 | 0.00 | 0.00 | 0.00 | 35 | 1020.6 |
| 20260503210612 | 75 | 68 | 4.0 | 6.0 | 0.00 | 0.00 | 0.00 | 34 | 1020.6 |
| 20260503205520 | 75 | 23 | 5.0 | 10.0 | 0.00 | 0.00 | 0.00 | 35 | 1020.7 |
| 20260503204434 | 76 | 180 | 4.0 | 7.0 | 0.00 | 0.00 | 0.00 | 34 | 1020.7 |
| 20260503203346 | 75 | 68 | 5.0 | 9.0 | 0.00 | 0.00 | 0.00 | 34 | 1021.1 |
| 20260503202736 | 75 | 23 | 3.0 | 8.0 | 0.00 | 0.00 | 0.00 | 35 | 1021.1 |
| 20260503201220 | 75 | 23 | 6.0 | 8.0 | 0.00 | 0.00 | 0.00 | 34 | 1021.2 |
| 20260503200610 | 75 | 0 | 7.0 | 13.0 | 0.00 | 0.00 | 0.00 | 34 | 1022.0 |
| 20260503195045 | 75 | 315 | 5.0 | 7.0 | 0.00 | 0.00 | 0.00 | 35 | 1022.0 |
| 20260503193959 | 74 | 68 | 5.0 | 9.0 | 0.00 | 0.00 | 0.00 | 35 | 1022.2 |
| 20260503192917 | 74 | 45 | 4.0 | 9.0 | 0.00 | 0.00 | 0.00 | 36 | 1022.2 |
| 20260503191828 | 74 | 315 | 5.0 | 9.0 | 0.00 | 0.00 | 0.00 | 35 | 1022.3 |
| 20260503190742 | 74 | 113 | 5.0 | 9.0 | 0.00 | 0.00 | 0.00 | 36 | 1022.3 |
| 20260503185701 | 74 | 45 | 6.0 | 6.0 | 0.00 | 0.00 | 0.00 | 34 | 1022.2 |
| 20260503184610 | 74 | 45 | 6.0 | 10.0 | 0.00 | 0.00 | 0.00 | 37 | 1022.2 |
| 20260503183523 | 74 | 45 | 5.0 | 8.0 | 0.00 | 0.00 | 0.00 | 36 | 1022.9 |
| 20260503182440 | 74 | 45 | 6.0 | 14.0 | 0.00 | 0.00 | 0.00 | 38 | 1022.9 |
| 20260503181348 | 73 | 113 | 7.0 | 8.0 | 0.00 | 0.00 | 0.00 | 36 | 1022.8 |
| 20260503180302 | 74 | 68 | 7.0 | 10.0 | 0.00 | 0.00 | 0.00 | 37 | 1022.8 |
| 20260503175224 | 73 | 23 | 7.0 | 13.0 | 0.00 | 0.00 | 0.00 | 39 | 1023.2 |
| 20260503174132 | 73 | 293 | 5.0 | 7.0 | 0.00 | 0.00 | 0.00 | 40 | 1023.4 |
| 20260503173048 | 73 | 23 | 6.0 | 13.0 | 0.00 | 0.00 | 0.00 | 39 | 1023.4 |
| 20260503171959 | 73 | 23 | 7.0 | 8.0 | 0.00 | 0.00 | 0.00 | 38 | 1023.7 |
| 20260503170913 | 73 | 23 | 6.0 | 12.0 | 0.00 | 0.00 | 0.00 | 37 | 1023.7 |
| 20260503131225 | 63 | 338 | 4.0 | 5.0 | 0.00 | 0.00 | 0.00 | 72 | 1023.1 |
| 20260503130138 | 62 | 338 | 3.0 | 4.0 | 0.00 | 0.00 | 0.00 | 73 | 1022.3 |
| 20260503110750 | 55 | 315 | 0.0 | 0.0 | 0.00 | 0.00 | 0.00 | 73 | 1021.6 |
| 20260503090447 | 56 | 338 | 0.0 | 0.0 | 0.00 | 0.00 | 0.00 | 71 | 1021.5 |
| 20260503081102 | 56 | 338 | 0.0 | 0.0 | 0.00 | 0.00 | 0.00 | 70 | 1021.4 |